Date String (YYYY-MM-DD hh:mm:ss) UTC,Instrument flags,Ambient pressure (hPa),Sample flow (lpm),Bypass flow (lpm),Sample temperature (°C),Ambient temperature (°C),ASC tube jacket temperature (°C),LED temperature (°C),Box temperature (°C),Sample RH (%),Span deviation,Mass concentration (μg/m³),Mass concentration (μg/m³),Mass concentration (μg/m³)
DateTimeUTC,F1_M11,P_M11,Q1_M11,Q2_M11,T1_M11,T2_M11,T3_M11,T4_M11,T5_M11,U1_M11,ZSPAN_M11,X2_M11,X0_M11,X1_M11
2022-12-13 01:00:00,,0809.4,5.00,0.00,23.3,21.7,00.0,32.3,25.2,10.4,0000.5,0005.53,0013.80,0004.50
2022-12-13 01:01:00,,0809.4,5.00,0.00,23.4,21.7,00.0,32.2,25.2,10.4,0000.0,0005.55,0013.78,0004.50
2022-12-13 01:02:00,,0809.4,5.00,0.00,23.3,21.7,00.0,32.2,25.2,10.5,0000.3,0005.58,0013.67,0004.52
2022-12-13 01:03:00,,0809.4,4.99,0.00,23.3,21.6,00.0,32.2,25.1,10.5,0003.0,0005.61,0013.48,0004.54
2022-12-13 01:04:00,,0809.4,5.00,0.00,23.3,21.6,00.0,32.2,25.1,10.6,0002.8,0005.63,0013.54,0004.55
2022-12-13 01:05:00,,0809.5,5.01,0.00,23.3,21.7,00.0,32.2,25.1,10.6,0002.7,0005.70,0013.16,0004.57
2022-12-13 01:06:00,,0809.4,4.99,0.00,23.3,21.7,00.0,32.2,25.2,10.6,0000.3,0005.74,0013.74,0004.58
2022-12-13 01:07:00,,0809.4,5.00,0.00,23.3,21.7,00.0,32.2,25.2,10.6,0002.6,0005.79,0014.16,0004.59
2022-12-13 01:08:00,,0809.4,4.99,0.00,23.3,21.7,00.0,32.2,25.2,10.6,0002.9,0005.74,0014.28,0004.60
2022-12-13 01:09:00,,0809.4,5.00,0.00,23.3,21.8,00.0,32.2,25.2,10.6,0002.8,0005.78,0014.77,0004.62
2022-12-13 01:10:00,,0809.4,5.01,0.00,23.3,21.8,00.0,32.2,25.2,10.6,0002.8,0005.82,0013.93,0004.63
2022-12-13 01:11:00,,0809.4,4.99,0.00,23.3,21.8,00.0,32.2,25.2,10.6,0003.1,0005.81,0014.44,0004.64
2022-12-13 01:12:00,,0809.3,4.99,0.00,23.3,21.8,00.0,32.2,25.2,10.6,0002.4,0005.78,0014.52,0004.63
2022-12-13 01:13:00,,0809.3,5.01,0.00,23.3,21.7,00.0,32.2,25.1,10.6,0002.3,0005.74,0014.75,0004.63
2022-12-13 01:14:00,,0809.3,5.00,0.00,23.3,21.7,00.0,32.2,25.1,10.6,0002.1,0005.74,0015.33,0004.62
2022-12-13 01:15:00,,0809.2,5.00,0.00,23.3,21.6,00.0,32.1,25.1,10.6,0002.0,0005.73,0015.33,0004.61
2022-12-13 01:16:00,,0809.3,4.99,0.00,23.3,21.6,00.0,32.1,25.1,10.6,0002.2,0005.69,0016.06,0004.59
2022-12-13 01:17:00,,0809.3,5.01,0.00,23.2,21.5,00.0,32.1,25.1,10.7,0001.4,0005.69,0015.42,0004.60
2022-12-13 01:18:00,,0809.4,4.98,0.00,23.2,21.5,00.0,32.1,25.0,10.7,0002.4,0005.75,0015.64,0004.62
2022-12-13 01:19:00,,0809.4,5.02,0.00,23.2,21.4,00.0,32.1,25.0,10.7,0003.4,0005.75,0016.01,0004.62
2022-12-13 01:20:00,,0809.4,5.00,0.00,23.2,21.4,00.0,32.1,25.0,10.7,0002.4,0005.75,0016.84,0004.62
2022-12-13 01:21:00,,0809.5,5.00,0.00,23.2,21.3,00.0,32.1,25.0,10.8,0002.0,0005.71,0017.71,0004.60
2022-12-13 01:22:00,,0809.4,5.00,0.00,23.2,21.3,00.0,32.1,25.0,10.8,0001.7,0005.69,0017.59,0004.58
2022-12-13 01:23:00,,0809.5,5.01,0.00,23.1,21.2,00.0,32.1,24.9,10.8,0001.9,0005.69,0017.36,0004.59
2022-12-13 01:24:00,,0809.5,4.99,0.00,23.1,21.2,00.0,32.0,24.9,10.8,0001.5,0005.69,0017.36,0004.59
2022-12-13 01:25:00,,0809.6,5.02,0.00,23.1,21.2,00.0,32.0,24.9,10.8,0000.4,0005.65,0016.44,0004.58
2022-12-13 01:26:00,,0809.5,4.98,0.00,23.1,21.1,00.0,32.0,24.8,10.9,0000.4,0005.65,0016.82,0004.58
2022-12-13 01:27:00,,0809.6,4.99,0.00,23.0,21.1,00.0,32.0,24.8,10.9,0000.1,0005.66,0016.09,0004.58
2022-12-13 01:28:00,,0809.6,5.00,0.00,23.0,21.1,00.0,32.0,24.9,10.9,0000.9,0005.62,0015.88,0004.56
2022-12-13 01:29:00,,0809.7,5.00,0.00,23.0,21.1,00.0,32.0,24.8,10.9,0000.9,0005.59,0016.18,0004.54
2022-12-13 01:30:00,,0809.7,5.00,0.00,23.0,21.0,00.0,31.9,24.8,10.9,-000.4,0005.58,0015.64,0004.53
2022-12-13 01:31:00,,0809.7,5.00,0.00,23.0,21.0,00.0,31.9,24.7,11.0,0000.3,0005.57,0014.51,0004.53
2022-12-13 01:32:00,,0809.7,5.02,0.00,22.9,20.9,00.0,31.9,24.7,11.0,0000.9,0005.55,0013.70,0004.53
2022-12-13 01:33:00,,0809.7,5.00,0.00,22.9,20.9,00.0,31.9,24.7,11.0,0001.8,0005.58,0012.81,0004.54
2022-12-13 01:34:00,,0809.6,4.98,0.00,22.9,20.9,00.0,31.9,24.7,11.0,0002.1,0005.59,0012.67,0004.54
2022-12-13 01:35:00,,0809.6,5.03,0.00,22.9,20.9,00.0,31.8,24.6,11.1,0002.5,0005.58,0012.61,0004.54
2022-12-13 01:36:00,,0809.6,4.98,0.00,22.8,20.9,00.0,31.8,24.6,11.1,0003.1,0005.59,0012.79,0004.55
2022-12-13 01:37:00,,0809.6,4.99,0.00,22.8,20.8,00.0,31.8,24.6,11.1,0003.3,0005.53,0011.91,0004.54
2022-12-13 01:38:00,,0809.7,5.02,0.00,22.8,20.7,00.0,31.8,24.5,11.1,0003.6,0005.50,0011.96,0004.53
2022-12-13 01:39:00,,0809.7,4.99,0.00,22.8,20.6,00.0,31.8,24.5,11.1,0003.5,0005.48,0011.92,0004.55
2022-12-13 01:40:00,,0809.8,5.03,0.00,22.7,20.7,00.0,31.7,24.4,11.2,0003.5,0005.45,0011.27,0004.56
2022-12-13 01:41:00,,0809.8,4.98,0.00,22.7,20.6,00.0,31.7,24.4,11.2,0003.9,0005.45,0011.25,0004.55
2022-12-13 01:42:00,,0809.8,5.03,0.00,22.7,20.6,00.0,31.7,24.4,11.2,0003.9,0005.46,0012.36,0004.56
2022-12-13 01:43:00,,0809.7,4.97,0.00,22.6,20.6,00.0,31.7,24.3,11.3,0003.7,0005.47,0012.17,0004.56
2022-12-13 01:44:00,,0809.9,5.02,0.00,22.6,20.5,00.0,31.6,24.3,11.3,0003.1,0005.47,0012.47,0004.57
2022-12-13 01:45:00,,0809.9,4.97,0.00,22.6,20.5,00.0,31.6,24.3,11.4,0002.7,0005.52,0012.74,0004.57
2022-12-13 01:46:00,,0810.0,5.02,0.00,22.6,20.5,00.0,31.6,24.3,11.5,0002.6,0005.55,0012.46,0004.57
2022-12-13 01:47:00,,0810.1,4.97,0.00,22.6,20.6,00.0,31.6,24.3,11.5,0002.0,0005.57,0012.42,0004.58
2022-12-13 01:48:00,,0810.2,5.03,0.00,22.6,20.6,00.0,31.5,24.3,11.6,0001.7,0005.61,0012.84,0004.60
2022-12-13 01:49:00,,0810.2,4.98,0.00,22.5,20.5,00.0,31.5,24.3,11.7,0001.9,0005.65,0012.68,0004.61
2022-12-13 01:50:00,,0810.2,5.02,0.00,22.5,20.5,00.0,31.5,24.2,11.7,0001.5,0005.66,0012.97,0004.60
2022-12-13 01:51:00,,0810.3,4.99,0.00,22.5,20.4,00.0,31.5,24.1,11.8,0000.9,0005.66,0013.40,0004.59
2022-12-13 01:52:00,,0810.3,5.00,0.00,22.4,20.3,00.0,31.4,24.1,11.8,0000.8,0005.65,0013.42,0004.60
2022-12-13 01:53:00,,0810.3,5.00,0.00,22.4,20.3,00.0,31.4,24.1,11.9,0000.6,0005.65,0012.31,0004.60
2022-12-13 01:54:00,,0810.3,4.99,0.00,22.4,20.3,00.0,31.4,24.1,11.9,0001.2,0005.68,0012.52,0004.60
2022-12-13 01:55:00,,0810.3,5.02,0.00,22.3,20.3,00.0,31.4,24.0,11.9,0001.9,0005.65,0012.53,0004.60
2022-12-13 01:56:00,,0810.3,4.97,0.00,22.3,20.2,00.0,31.3,24.0,12.0,0002.0,0005.62,0012.56,0004.61
2022-12-13 01:57:00,,0810.3,5.02,0.00,22.3,20.3,00.0,31.3,24.0,12.0,0002.5,0005.68,0013.52,0004.65
2022-12-13 01:58:00,,0810.3,5.00,0.00,22.3,20.3,00.0,31.3,24.0,12.0,0003.9,0005.64,0013.40,0004.67
2022-12-13 01:59:00,,0810.3,4.99,0.00,22.3,20.3,00.0,31.3,24.0,12.1,0004.6,0005.64,0013.60,0004.67
